Weather History for Slidell, LA

Change the Weather History Date:

Monday, August 25, 2014

  Actual Average (KNEW) Record (KNEW)
Temperature  
Mean Temperature 82 °F 83 °F  
Max Temperature 90 °F 91 °F 97 °F (1990)
Min Temperature 75 °F 75 °F 65 °F (1966)
Degree Days  
Heating Degree Days 0 0  
Month to date heating degree days 0  
Since 1 June heating degree days 0  
Since 1 July heating degree days 0  
Cooling Degree Days 17 18  
Month to date cooling degree days 450  
Year to date cooling degree days 2130  
Since 1 June cooling degree days 1511  
Growing Degree Days 32 (Base 50)    
Moisture  
Dew Point 74 °F    
Average Humidity 78    
Maximum Humidity 90    
Minimum Humidity 59    
Precipitation  
Precipitation 0.20 in 0.18 in 1.52 in (1992)
Month to date precipitation 4.84  
Year to date precipitation 43.07  
Snow  
Snow 0.00 in - - ()
Month to date snowfall  
Since 1 June snowfall  
Since 1 July snowfall  
Snow Depth -    
Sea Level Pressure  
Sea Level Pressure 29.91 in    
Wind  
Wind Speed 6 mph (NE)    
Max Wind Speed 14 mph    
Max Gust Speed 23 mph    
Visibility 8 miles    
Events Rain , Thunderstorm    
T = Trace of Precipitation, MM = Missing Value Source: NWS Daily Summary

Daily Weather History Graph

Daily Weather History Graph

Search for Another Location

Airport:

Trip Planner

Search our weather history database for the weather conditions in past years. The results will help you decide how hot, cold, wet, or windy it might be!

Date:

Astronomy

Aug. 25, 2014 Rise Set
Actual Time 6:32 AM CDT 7:30 PM CDT
Civil Twilight 6:07 AM CDT 7:54 PM CDT
Nautical Twilight 5:38 AM CDT 8:24 PM CDT
Astronomical Twilight 5:07 AM CDT 8:54 PM CDT
Moon 6:33 AM CDT 7:26 PM CDT
Length of Visible Light 13h 47m
Length of Day
12h 58m
New Moon, 0% of the Moon is Illuminated
Aug 25
New Moon
Sep 2
First Quarter
Sep 8
Full
Sep 15
Last Quarter
Sep 24
New

Hourly Weather History & Observations

Time (CDT) Temp. Heat Index Dew Point Humidity Pressure Visibility Wind Dir Wind Speed Gust Speed Precip Events Conditions
12:53 AM 80.1 °F 84.5 °F 73.9 °F 81% 29.89 in 10.0 mi North 4.6 mph - N/A   Overcast
1:53 AM 79.0 °F - 73.0 °F 82% 29.88 in 10.0 mi North 4.6 mph - N/A   Clear
2:53 AM 80.1 °F 83.8 °F 72.0 °F 76% 29.87 in 10.0 mi North 4.6 mph - N/A   Clear
3:53 AM 78.1 °F - 72.0 °F 81% 29.88 in 10.0 mi NNE 3.5 mph - N/A   Clear
4:53 AM 77.0 °F - 72.0 °F 84% 29.88 in 10.0 mi Calm Calm - N/A   Clear
5:53 AM 75.9 °F - 72.0 °F 87% 29.89 in 10.0 mi North 5.8 mph - N/A   Clear
6:53 AM 75.9 °F - 72.0 °F 87% 29.91 in 10.0 mi NNE 4.6 mph - N/A   Clear
7:53 AM 78.1 °F - 73.0 °F 84% 29.92 in 10.0 mi NE 4.6 mph - N/A   Clear
9:53 AM 82.0 °F 87.9 °F 73.9 °F 76% 29.94 in 10.0 mi NE 8.1 mph - N/A   Clear
10:53 AM 82.9 °F 90.2 °F 75.0 °F 77% 29.95 in 10.0 mi ENE 8.1 mph - N/A   Mostly Cloudy
11:53 AM 86.0 °F 96.0 °F 75.9 °F 72% 29.94 in 10.0 mi East 6.9 mph - N/A   Scattered Clouds
12:30 PM 88.0 °F 98.5 °F 75.9 °F 67% 29.93 in 10.0 mi Variable 3.5 mph - N/A   Scattered Clouds
12:53 PM 88.0 °F 98.5 °F 75.9 °F 67% 29.93 in 10.0 mi East 8.1 mph - N/A   Scattered Clouds
1:53 PM 89.1 °F 99.1 °F 75.0 °F 63% 29.93 in 10.0 mi East 9.2 mph - N/A   Mostly Cloudy
2:12 PM 82.9 °F 90.8 °F 75.9 °F 79% 29.93 in 4.0 mi NE 12.7 mph 23.0 mph 0.02 in Rain , Thunderstorm Thunderstorms and Rain
2:15 PM 81.0 °F 87.3 °F 75.9 °F 85% 29.93 in 2.5 mi NNE 13.8 mph 23.0 mph 0.03 in Rain , Thunderstorm Heavy Thunderstorms and Rain
2:19 PM 79.0 °F - 73.9 °F 84% 29.93 in 1.8 mi NE 13.8 mph 21.9 mph 0.05 in Rain , Thunderstorm Heavy Thunderstorms and Rain
2:24 PM 77.0 °F - 72.0 °F 84% 29.92 in 0.8 mi WNW 9.2 mph 21.9 mph 0.08 in Rain , Thunderstorm Heavy Thunderstorms and Rain
2:31 PM 78.1 °F - 73.0 °F 84% 29.92 in 1.5 mi NNE 3.5 mph - 0.11 in Rain , Thunderstorm Light Thunderstorms and Rain
2:33 PM 79.0 °F - 73.0 °F 82% 29.92 in 4.0 mi Calm Calm - 0.12 in Rain Light Rain
2:40 PM 82.0 °F 87.9 °F 73.9 °F 76% 29.91 in 10.0 mi NE 4.6 mph - 0.15 in Thunderstorm Thunderstorm
2:53 PM 86.0 °F 98.3 °F 78.1 °F 77% 29.91 in 10.0 mi ESE 9.2 mph - 0.20 in Thunderstorm Scattered Clouds
3:13 PM 87.1 °F 97.3 °F 75.9 °F 69% 29.90 in 10.0 mi Variable 6.9 mph - N/A   Scattered Clouds
3:53 PM 89.1 °F 97.0 °F 73.0 °F 59% 29.88 in 10.0 mi East 11.5 mph - N/A   Partly Cloudy
4:53 PM 89.1 °F 97.0 °F 73.0 °F 59% 29.89 in 10.0 mi East 6.9 mph - N/A   Partly Cloudy
5:53 PM 86.0 °F 93.0 °F 73.0 °F 65% 29.89 in 10.0 mi East 5.8 mph - N/A   Clear
6:53 PM 84.0 °F 92.6 °F 75.9 °F 76% 29.89 in 10.0 mi Calm Calm - N/A   Mostly Cloudy
7:53 PM 82.0 °F 90.2 °F 77.0 °F 85% 29.91 in 10.0 mi Calm Calm - N/A   Mostly Cloudy
10:53 PM 78.1 °F - 75.0 °F 90% 29.94 in 10.0 mi Variable 3.5 mph - N/A   Scattered Clouds
11:53 PM 78.1 °F - 75.0 °F 90% 29.94 in 9.0 mi Calm Calm - N/A   Clear